Terminal Aerodrome Forecast
Issued by NWS

Home | Current Version | Previous Version | Text Only | Print | Product List | Glossary On
Versions: 1 2 3 4 5 6 7 8 9 10 11 12 13 14 15 16 17 18 19 20 21 22 23 24 25 26 27 28 29
000
FTUS41 KGYX 301100
TAFLEB
TAF
KLEB 301120Z 3012/3112 VRB03KT 6SM BR SCT001 BKN080
      TEMPO 3012/3013 3SM BR BKN001
     FM301300 VRB03KT P6SM SCT015 BKN050
     FM301500 18005KT P6SM VCSH BKN050
     FM310000 18003KT P6SM BKN250
     FM310900 VRB03KT 1SM BR SCT001=

USA.gov is the U.S. government's official web portal to all federal, state and local government web resources and services.